Weather in Kurgan

Russia / Saratov Oblast     52°23′18″N   43°39′56″E
temp.,
°C
wind,
m/s
gust,
m/s
humid.,
%
clouds,
%
prec.,
mm/h
press.,
hPa
HPBL,
m
13 may, thu
thu1301:00+8e22965 0.0 102114
04:00+8ene33951 0.0 102141
07:00+11ne359699 0.0 1019136
10:00+15ene3586100 0.1 1018383
13:00+18se247795 0.1 1017621
16:00+20s347040 1.9 1017931
19:00+20sw23770 0.6 1016116
22:00+15sse118438 0.6 101811
14 may, fri
fri1401:00+14s1187100 0.0 101810
04:00+14ese2289100 0.0 101912
07:00+15e3590100 0.0 1019119
10:00+21ese45725 0.0 1018483
13:00+25se465888 0.0 10181233
16:00+26sse5755100 0.0 10171526
19:00+22sse41071100 0.0 1016317
22:00+18se4781100 0.0 1016103
15 may, sat
sat1501:00+17se41568100 0.0 1015278
04:00+16sse5146158 0.0 1016276
07:00+16sse51663100 0.0 1016327
10:00+20sse71654100 0.0 1016627
13:00+25s71247100 0.0 10161016
16:00+26s7135024 0.0 10151430
19:00+23sse5116241 0.0 1015303
22:00+18sse4117318 0.0 1015171
16 may, sun
sun1601:00+16sse367199 0.0 101585
04:00+14s357211 0.0 101558
07:00+15s3976100 0.0 1016199
10:00+21s4658100 0.0 1016401
13:00+24s6847100 0.0 1016763
16:00+26s4646100 0.0 10161185
19:00+24sse236180 0.0 101553
22:00+18ese22685 0.0 101513
17 may, mon
mon1701:00+17e337436 0.0 101532
04:00+16se226872 0.0 101613
07:00+18ese346833 0.0 101672
10:00+24ese475579 0.0 1016346
13:00+28sse6103969 0.0 10152527
16:00+28se5942100 0.0 10151632
19:00+23ese486197 0.0 1015163
22:00+19ese455499 0.0 101550